Regional Weather Roundup
Issued by NWS

Home | Current Version | Previous Version | Graphics & Text | Print | Product List | Glossary On
Versions: 1 2 3 4 5 6 7 8 9 10 11 12 13 14 15 16 17 18 19 20 21 22 23 24 25 26 27 28 29 30 31 32 33 34 35 36 37 38 39 40 41 42 43 44 45 46 47 48 49 50
000
ASUS43 KBIS 311020
RWRND

NORTH DAKOTA REGIONAL WEATHER ROUNDUP
NATIONAL WEATHER SERVICE BISMARCK ND
500 AM CDT THU JUL 31 2014

NOTE: "FAIR" INDICATES FEW OR NO CLOUDS BELOW 12,000 FEET WITH NO
SIGNIFICANT WEATHER AND/OR OBSTRUCTIONS TO VISIBILITY.


NDZ001>003-009>011-017-311100-
NORTHWEST NORTH DAKOTA

CITY           SKY/WX    TMP DP  RH WIND       PRES   REMARKS
WILLISTON      CLOUDY    65  58  78 N6        30.11R
MINOT          MOCLDY    59  52  77 CALM      30.09F
MINOT AFB      MOCLDY    56  56  98 W1        30.08F
$$

NDZ018>021-031>035-040>046-311100-
SOUTHWEST NORTH DAKOTA

CITY           SKY/WX    TMP DP  RH WIND       PRES   REMARKS
BISMARCK       PTCLDY    55  53  93 SE3       30.11F
DICKINSON      MOCLDY    57  53  86 NW5       30.13F
GARRISON         N/A     57  55  93 NW5       30.11S
HETTINGER ARPT PTCLDY    51  48  89 NE5       30.15R
$$

NDZ004>008-012>016-024-026-027-054-311100-
NORTHEAST NORTH DAKOTA

CITY           SKY/WX    TMP DP  RH WIND       PRES   REMARKS
GRAND FORKS    CLEAR     59  56  89 W6        30.03R
GRND FRKS AFB  CLEAR     61  60  99 W7        30.04S
DEVILS LAKE    CLEAR     63  55  77 W5        30.06S
$$

NDZ022-023-025-028>030-036>039-047>053-311100-
SOUTHEAST NORTH DAKOTA

CITY           SKY/WX    TMP DP  RH WIND       PRES   REMARKS
FARGO          CLEAR     56  53  90 SW3       30.04S
JAMESTOWN      CLEAR     58  55  90 W3        30.08S
$$



USA.gov is the U.S. government's official web portal to all federal, state and local government web resources and services.